Find Starlink 1712

NORAD ID: 46581 Int'l Des: 2020-070 Owner: SPXS Country: US Constellation: starlink decayed
LEOCIRCULAR
Vis

Historical Track — 17. März 2026

3D-Globus wird geladen...

Über Starlink 1712

Beschreibung wird geladen...

Höhenverlauf

Loading altitude history...

Zweizeiliger Elementsatz

1 46581U 20070BB 26076.77422564 .11543896 12464-4 50333-3 0 9996
2 46581 53.0131 37.5709 0003761 274.1981 85.8636 16.43462756302161
Epoch: 17. März 2026 • Age: 1205 hours

Aktueller Status

Position data unavailable
Startdatum 6. Okt. 2020
Alter 5.5 years
Verglühungsdatum 17. März 2026
Typ internet

Technische Details

Klassifizierung Payload
Masse 260.00 kg
Trockenmasse 248.00 kg
Gesamtmasse 260.00 kg
Länge 0.20 m
Durchmesser 2.80 m
Spannweite 9.00 m
Form Box + pan
Hersteller SPXS
Bus-Typ Starlink
Phasenstatus Reentered
Besitzer/Staat SPXS/US

Most Searched